Victoria, TX

12:42 AM CST on December 07, 2019 (GMT -0600)
Victoria Regional

Weather History for KVCT - October, 2019

Change the Weather History Date:

Friday, October 4, 2019

  Actual Average Record
Temperature  
Mean Temperature 81 °F 75 °F  
Max Temperature 91 °F 86 °F 103 °F (1926)
Min Temperature 71 °F 64 °F 47 °F (1975)
Degree Days  
Heating Degree Days 0 0  
Month to date heating degree days 0 0  
Since 1 July heating degree days 0 1  
Cooling Degree Days 16 10  
Month to date cooling degree days 70 43  
Year to date cooling degree days 3335 2841  
Growing Degree Days 31 (Base 50)    
Moisture  
Dew Point 71 °F    
Average Humidity 78    
Maximum Humidity 93    
Minimum Humidity 54    
Precipitation  
Precipitation 0.04 in 0.15 in 3.57 in (1959)
Month to date precipitation 0.04 0.57  
Year to date precipitation 19.40 31.60  
Snow  
Snow 0.00 in 0.00 in 0.00 in (2002)
Month to date snowfall 0.0 0.0  
Since 1 July snowfall 0.0 0.0  
Since 1 September snowfall 0.0 0.0  
Snow Depth 0.00 in    
Sea Level Pressure  
Sea Level Pressure 30.01 in    
Wind  
Wind Speed 5 mph ()    
Max Wind Speed 17 mph    
Max Gust Speed 20 mph    
Visibility 7.9 miles    
Events Rain    
T = Trace of Precipitation, MM = Missing Value Source: Averaged Metar Reports

Daily Weather History Graph

Daily Weather History Graph

Search for Another Location

Airport or City:

Astronomy

Oct. 04, 2019 Rise Set
Actual Time 7:22 AM CDT 7:10 PM CDT
Civil Twilight 6:58 AM CDT 7:33 PM CDT
Nautical Twilight 6:31 AM CDT 8:01 PM CDT
Astronomical Twilight 6:03 AM CDT 8:28 PM CDT
Moon 1:29 PM CDT (10/4) No Moon Set
Length of Visible Light 12h 35m
Length of Day
11h 47m
Waxing Crescent, 40% of the Moon is Illuminated
Oct 4
Waxing Crescent
Oct 5
First Quarter
Oct 13
Full
Oct 21
Last Quarter
Oct 27
New

Hourly Weather History & Observations

Time (CDT) Temp. Heat Index Dew Point Humidity Pressure Visibility Wind Dir Wind Speed Gust Speed Precip Events Conditions
12:51 AM 73.0 °F - 71.1 °F 93% 30.02 in 6.0 mi ENE 3.5 mph - N/A   Clear
1:51 AM 73.0 °F - 70.0 °F 90% 30.03 in 6.0 mi NNE 5.8 mph - N/A   Clear
2:51 AM 73.0 °F - 71.1 °F 93% 30.02 in 5.0 mi NNE 4.6 mph - N/A   Clear
3:51 AM 72.0 °F - 70.0 °F 93% 30.01 in 5.0 mi NNE 5.8 mph - N/A   Clear
4:51 AM 72.0 °F - 70.0 °F 93% 30.01 in 4.0 mi NNE 6.9 mph - N/A   Clear
5:51 AM 72.0 °F - 70.0 °F 93% 30.02 in 4.0 mi NNE 5.8 mph - N/A   Clear
6:51 AM 72.0 °F - 70.0 °F 93% 30.03 in 4.0 mi North 4.6 mph - N/A   Partly Cloudy
7:51 AM 72.0 °F - 70.0 °F 93% 30.04 in 3.0 mi NNE 3.5 mph - N/A   Partly Cloudy
8:51 AM 75.0 °F - 72.0 °F 90% 30.05 in 5.0 mi NNE 6.9 mph - N/A   Clear
9:51 AM 80.1 °F 84.2 °F 73.0 °F 79% 30.06 in 9.0 mi ENE 8.1 mph - N/A   Clear
10:51 AM 84.0 °F 91.2 °F 73.9 °F 72% 30.05 in 10.0 mi ENE 8.1 mph - N/A   Scattered Clouds
11:12 AM 84.9 °F 91.4 °F 73.0 °F 67% 30.05 in 10.0 mi ENE 9.2 mph - N/A   Mostly Cloudy
11:21 AM 86.0 °F 93.8 °F 73.9 °F 67% 30.05 in 10.0 mi ENE 11.5 mph - N/A   Mostly Cloudy
11:51 AM 86.0 °F 92.2 °F 72.0 °F 63% 30.05 in 10.0 mi East 6.9 mph - N/A   Scattered Clouds
12:51 PM 87.1 °F 93.6 °F 72.0 °F 61% 30.03 in 10.0 mi ESE 10.4 mph - N/A   Scattered Clouds
1:51 PM 88.0 °F 94.7 °F 72.0 °F 59% 30.00 in 10.0 mi Variable 3.5 mph - 0.04 in   Overcast
2:51 PM 88.0 °F 95.6 °F 73.0 °F 61% 29.97 in 8.0 mi East 4.6 mph - 0.00 in Rain Light Rain
3:51 PM 89.1 °F 96.0 °F 72.0 °F 57% 29.95 in 10.0 mi SE 10.4 mph - 0.00 in   Mostly Cloudy
4:51 PM 90.0 °F 96.4 °F 71.1 °F 54% 29.96 in 10.0 mi SE 13.8 mph - N/A   Partly Cloudy
5:51 PM 86.0 °F 90.7 °F 70.0 °F 59% 29.96 in 10.0 mi SSE 12.7 mph - N/A   Clear
6:51 PM 82.9 °F 87.5 °F 71.1 °F 67% 29.97 in 10.0 mi SE 10.4 mph - N/A   Clear
7:51 PM 80.1 °F 83.2 °F 70.0 °F 71% 29.97 in 10.0 mi ESE 5.8 mph - N/A   Clear
8:51 PM 77.0 °F - 72.0 °F 84% 29.99 in 10.0 mi SSE 4.6 mph - N/A   Clear
9:51 PM 75.9 °F - 71.1 °F 85% 30.00 in 10.0 mi Calm Calm - N/A   Clear
9:54 PM 75.9 °F - 71.1 °F 85% 30.01 in 10.0 mi Calm Calm - N/A   Clear
10:51 PM 75.0 °F - 72.0 °F 90% 30.00 in 8.0 mi Calm Calm - N/A   Clear
11:51 PM 73.0 °F - 71.1 °F 93% 30.00 in 6.0 mi Calm Calm - N/A   Clear